TimeEDT,TemperatureF,Dew PointF,Humidity,Sea Level PressureIn,VisibilityMPH,Wind Direction,Wind SpeedMPH,Gust SpeedMPH,PrecipitationIn,Events,Conditions,WindDirDegrees,DateUTC
12:13 AM,42.8,41.0,93,29.96,10.0,South,10.4,19.6,N/A,Rain,Rain,170,2011-10-31 04:13:00
12:33 AM,42.8,41.0,93,29.96,10.0,South,11.5,19.6,N/A,,Drizzle,180,2011-10-31 04:33:00
12:53 AM,42.8,41.0,93,29.96,10.0,South,8.1,20.7,N/A,,Overcast,180,2011-10-31 04:53:00
1:13 AM,42.8,41.0,93,29.96,10.0,SSW,11.5,20.7,N/A,,Overcast,200,2011-10-31 05:13:00
1:33 AM,42.8,41.0,93,29.97,10.0,South,12.7,17.3,N/A,,Overcast,190,2011-10-31 05:33:00
1:53 AM,42.8,41.0,93,29.97,10.0,South,5.8,-,N/A,,Overcast,170,2011-10-31 05:53:00
2:13 AM,42.8,41.0,93,29.97,10.0,South,5.8,-,N/A,,Overcast,180,2011-10-31 06:13:00
2:33 AM,44.6,41.0,87,29.96,10.0,South,10.4,17.3,N/A,,Overcast,170,2011-10-31 06:33:00
2:53 AM,44.6,41.0,87,29.96,10.0,South,9.2,-,N/A,,Overcast,170,2011-10-31 06:53:00
3:13 AM,44.6,41.0,87,29.96,10.0,South,6.9,-,N/A,,Overcast,180,2011-10-31 07:13:00
3:33 AM,44.6,41.0,87,29.96,10.0,South,6.9,16.1,N/A,,Overcast,180,2011-10-31 07:33:00
3:53 AM,44.6,41.0,87,29.96,10.0,South,11.5,18.4,N/A,,Overcast,180,2011-10-31 07:53:00
4:13 AM,44.6,41.0,87,29.96,10.0,South,8.1,19.6,N/A,Rain,Light Rain,170,2011-10-31 08:13:00
4:33 AM,42.8,41.0,93,29.96,10.0,South,8.1,-,N/A,,Overcast,180,2011-10-31 08:33:00
4:54 AM,42.8,41.0,93,29.96,10.0,SSE,5.8,-,N/A,,Overcast,160,2011-10-31 08:54:00
5:13 AM,42.8,41.0,93,29.96,10.0,SSE,4.6,-,N/A,,Overcast,160,2011-10-31 09:13:00
5:33 AM,42.8,41.0,93,29.96,10.0,South,4.6,-,N/A,,Overcast,170,2011-10-31 09:33:00
6:13 AM,42.8,41.0,93,29.96,10.0,SSE,5.8,-,N/A,,Overcast,150,2011-10-31 10:13:00
6:33 AM,42.8,41.0,93,29.96,10.0,SE,3.5,-,N/A,,Overcast,140,2011-10-31 10:33:00
6:53 AM,42.8,41.0,93,29.96,10.0,SSE,3.5,-,N/A,,Overcast,150,2011-10-31 10:53:00
7:13 AM,42.8,41.0,93,29.97,10.0,SSE,4.6,-,N/A,,Overcast,150,2011-10-31 11:13:00
7:53 AM,42.8,41.0,93,29.97,10.0,Calm,Calm,-,N/A,,Overcast,0,2011-10-31 11:53:00
8:13 AM,42.8,41.0,93,29.97,10.0,Calm,Calm,-,N/A,,Overcast,0,2011-10-31 12:13:00
8:33 AM,42.8,41.0,93,29.97,10.0,Calm,Calm,-,N/A,,Overcast,0,2011-10-31 12:33:00
8:53 AM,41.0,41.0,100,29.98,7.0,Calm,Calm,-,N/A,,Overcast,0,2011-10-31 12:53:00
9:13 AM,42.8,41.0,93,29.98,10.0,Calm,Calm,-,N/A,,Scattered Clouds,0,2011-10-31 13:13:00
9:33 AM,42.8,41.0,93,29.98,10.0,SSE,3.5,-,N/A,,Scattered Clouds,160,2011-10-31 13:33:00
9:53 AM,44.6,39.2,81,29.99,10.0,South,4.6,-,N/A,,Clear,180,2011-10-31 13:53:00
10:13 AM,44.6,37.4,76,29.99,10.0,South,5.8,-,N/A,,Clear,180,2011-10-31 14:13:00
10:33 AM,44.6,37.4,76,29.99,10.0,South,9.2,16.1,N/A,,Clear,180,2011-10-31 14:33:00
10:53 AM,46.4,37.4,71,30.00,10.0,South,6.9,-,N/A,,Clear,180,2011-10-31 14:53:00
11:13 AM,46.4,37.4,71,29.99,10.0,SSE,8.1,-,N/A,,Scattered Clouds,150,2011-10-31 15:13:00
11:33 AM,46.4,37.4,71,29.99,10.0,SSE,6.9,-,N/A,,Scattered Clouds,160,2011-10-31 15:33:00
11:53 AM,48.2,37.4,66,29.99,10.0,Calm,Calm,-,N/A,,Clear,0,2011-10-31 15:53:00
12:13 PM,50.0,37.4,62,29.99,10.0,Calm,Calm,-,N/A,,Clear,0,2011-10-31 16:13:00
12:33 PM,50.0,39.2,66,29.99,10.0,Calm,Calm,-,N/A,,Clear,0,2011-10-31 16:33:00
12:53 PM,50.0,39.2,66,29.99,10.0,Calm,Calm,-,N/A,,Scattered Clouds,0,2011-10-31 16:53:00
1:13 PM,50.0,39.2,66,29.99,10.0,South,4.6,-,N/A,,Overcast,180,2011-10-31 17:13:00
1:34 PM,50.0,37.4,62,29.99,10.0,South,4.6,-,N/A,,Overcast,170,2011-10-31 17:34:00
1:53 PM,50.0,37.4,62,29.98,10.0,WNW,4.6,-,N/A,,Overcast,300,2011-10-31 17:53:00
2:13 PM,50.0,37.4,62,29.98,10.0,West,4.6,-,N/A,,Overcast,260,2011-10-31 18:13:00
2:34 PM,50.0,37.4,62,29.98,10.0,West,4.6,-,N/A,,Overcast,270,2011-10-31 18:34:00
2:53 PM,50.0,37.4,62,29.99,10.0,WSW,4.6,-,N/A,,Overcast,240,2011-10-31 18:53:00
3:13 PM,50.0,37.4,62,29.99,10.0,West,3.5,-,N/A,,Overcast,280,2011-10-31 19:13:00
3:34 PM,51.8,37.4,58,29.99,10.0,West,3.5,-,N/A,,Overcast,270,2011-10-31 19:34:00
3:53 PM,50.0,37.4,62,30.00,10.0,SW,4.6,-,N/A,,Overcast,230,2011-10-31 19:53:00
4:13 PM,50.0,37.4,62,30.00,10.0,Calm,Calm,-,N/A,,Overcast,0,2011-10-31 20:13:00
4:33 PM,50.0,37.4,62,30.00,10.0,WSW,5.8,-,N/A,,Overcast,250,2011-10-31 20:33:00
4:53 PM,50.0,37.4,62,30.00,10.0,WSW,3.5,-,N/A,,Overcast,240,2011-10-31 20:53:00
5:13 PM,50.0,37.4,62,30.01,10.0,Calm,Calm,-,N/A,,Overcast,0,2011-10-31 21:13:00
5:34 PM,50.0,35.6,58,30.01,10.0,WSW,4.6,-,N/A,,Overcast,250,2011-10-31 21:34:00
5:53 PM,50.0,37.4,62,30.02,10.0,Calm,Calm,-,N/A,,Overcast,0,2011-10-31 21:53:00
6:13 PM,50.0,35.6,58,30.03,10.0,WSW,3.5,-,N/A,,Overcast,240,2011-10-31 22:13:00
6:33 PM,48.2,37.4,66,30.03,10.0,Calm,Calm,-,N/A,,Overcast,0,2011-10-31 22:33:00
6:53 PM,48.2,37.4,66,30.04,10.0,Calm,Calm,-,N/A,,Overcast,0,2011-10-31 22:53:00
7:13 PM,46.4,37.4,71,30.05,10.0,Calm,Calm,-,N/A,,Overcast,0,2011-10-31 23:13:00
7:34 PM,46.4,37.4,71,30.06,10.0,West,8.1,-,N/A,,Overcast,270,2011-10-31 23:34:00
7:53 PM,44.6,37.4,76,30.07,10.0,West,5.8,-,N/A,,Overcast,280,2011-10-31 23:53:00
8:13 PM,44.6,37.4,76,30.08,10.0,West,6.9,-,N/A,,Overcast,280,2011-11-01 00:13:00
8:33 PM,44.6,37.4,76,30.08,10.0,Calm,Calm,-,N/A,,Overcast,0,2011-11-01 00:33:00
8:53 PM,44.6,39.2,81,30.08,10.0,Calm,Calm,-,N/A,,Overcast,0,2011-11-01 00:53:00
9:13 PM,44.6,37.4,76,30.08,10.0,Calm,Calm,-,N/A,,Overcast,0,2011-11-01 01:13:00
9:34 PM,42.8,37.4,81,30.09,10.0,Calm,Calm,-,N/A,,Overcast,0,2011-11-01 01:34:00
9:53 PM,42.8,37.4,81,30.10,10.0,Calm,Calm,-,N/A,,Overcast,0,2011-11-01 01:53:00
10:13 PM,42.8,37.4,81,30.11,10.0,SW,3.5,-,N/A,,Overcast,230,2011-11-01 02:13:00
10:33 PM,42.8,37.4,81,30.11,10.0,Calm,Calm,-,N/A,,Mostly Cloudy,0,2011-11-01 02:33:00
10:53 PM,41.0,35.6,81,30.11,10.0,Calm,Calm,-,N/A,,Clear,0,2011-11-01 02:53:00
11:13 PM,35.6,33.8,93,30.11,7.0,South,5.8,-,N/A,,Clear,190,2011-11-01 03:13:00
11:33 PM,35.6,33.8,93,30.11,7.0,Calm,Calm,-,N/A,,Clear,0,2011-11-01 03:33:00
11:53 PM,33.8,33.8,100,30.11,3.0,SSW,8.1,-,N/A,,Clear,210,2011-11-01 03:53:00